Regional Weather Roundup
Issued by NWS

Home | Current Version | Previous Version | Text Only | Print | Product List | Glossary Off
Versions: 1 2 3 4 5 6 7 8 9 10 11 12 13 14 15 16 17 18 19 20 21 22 23 24 25 26 27 28 29 30 31 32 33 34 35 36 37 38 39 40 41 42 43 44 45 46 47 48 49 50

000
ASUS43 KLSX 202307
RWRMO

WEATHER SUMMARY FOR MISSOURI
NATIONAL WEATHER SERVICE SPRINGFIELD MO
600 PM CDT WED SEP 20 2017

NOTE: "FAIR" INDICATES FEW OR NO CLOUDS BELOW 12,000 FEET WITH NO
       SIGNIFICANT WEATHER AND/OR OBSTRUCTIONS TO VISIBILITY.
       CURRENT SKY AND/OR WEATHER CONDITIONS ARE NOT AVAILABLE FOR
       CHILLICOTHE AND FARMINGTON.

MOZ001>031-035>038-043-044-053-054-210000-
...NORTHERN AND WESTERN MISSOURI...

CITY           SKY/WX    TMP DP  RH WIND       PRES   REMARKS
KANSAS CTY INT PTSUNNY   84  75  74 S5        29.81R HX  92
KANSAS C DTWN  PTSUNNY   88  75  65 SW8       29.79S HX  97
LEE`S SUMMIT   MOSUNNY   87  75  67 SW7       29.82R HX  96
ST JOSEPH      PTSUNNY   86  72  62 S10       29.80R HX  92
CHILLICOTHE      N/A     85  78  80 CALM      29.82R HX  96
KIRKSVILLE     SUNNY     89  72  56 SW7       29.83R HX  96

$$
MOZ066>068-077>081-088>096-101>105-210000-
...SOUTHWEST MISSOURI...

CITY           SKY/WX    TMP DP  RH WIND       PRES   REMARKS
SPRINGFIELD    SUNNY     90  70  51 S12       29.87R HX  95
JOPLIN         SUNNY     90  73  57 S12       29.83R HX  98
BRANSON        MOSUNNY   91  64  40 S7        29.91R HX  93

$$
MOZ032>034-039>042-045>050-055>058-069>072-210000-
...CENTRAL MISSOURI...

CITY           SKY/WX    TMP DP  RH WIND       PRES   REMARKS
COLUMBIA       SUNNY     90  71  53 S9        29.85R HX  96
JEFFERSON CITY SUNNY    N/A N/A N/A S15       29.83R
ROLLA          MOSUNNY   90  68  48 S12       29.90R HX  94
SEDALIA        SUNNY     90  74  59 S13       29.84R HX  99
WHITEMAN AFB   MOSUNNY   88  76  66 S13       29.81R HX  99
WARRENSBURG    SUNNY     90  72  55 S8        29.81S HX  96
OSAGE BEACH    SUNNY     90  72  55 SE7       29.86R HX  97

$$
MOZ051-052-059>065-210000-
...EAST CENTRAL MISSOURI...

CITY           SKY/WX    TMP DP  RH WIND       PRES   REMARKS
ST LOUIS INTL  SUNNY     94  67  41 S12       29.87S HX  97
SPIRIT OF STL  MOSUNNY   93  70  46 S6        29.85S HX  99
ST CHARLES     SUNNY     95  67  39 SE12      29.85R HX  99

$$
MOZ072>076-082>087-097>100-106>115-210000-
...SOUTH CENTRAL AND SOUTHEAST MISSOURI...

CITY           SKY/WX    TMP DP  RH WIND       PRES   REMARKS
CAPE GIRARDEAU SUNNY     89  69  51 S10       29.91S HX  93
FARMINGTON     SUNNY     89  71  55 S8        29.93R HX  95
POPLAR BLUFF   SUNNY     89  69  51 S8        29.91S HX  93
WEST PLAINS    SUNNY     90  67  46 S8        29.93S HX  93

$$



USA.gov is the U.S. government's official web portal to all federal, state and local government web resources and services.